CDT,Max TemperatureF,Mean TemperatureF,Min TemperatureF,Max Dew PointF,MeanDew PointF,Min DewpointF,Max Humidity, Mean Humidity, Min Humidity, Max Sea Level PressureIn, Mean Sea Level PressureIn, Min Sea Level PressureIn, Max VisibilityMiles, Mean VisibilityMiles, Min VisibilityMiles, Max Wind SpeedMPH, Mean Wind SpeedMPH, Max Gust SpeedMPH,PrecipitationIn, CloudCover, Events, WindDirDegrees
2013-10-1,82,66,51,58,55,49,100,80,39,30.00,29.88,29.53,10,6,0,14,4,21,0.00,0,Fog,227
2013-10-2,81,62,45,54,47,38,97,81,23,30.13,29.97,29.53,10,4,0,8,1,,0.00,2,Fog,69
2013-10-3,77,66,57,67,61,51,97,88,65,29.94,29.84,29.53,10,5,0,29,2,41,1.12,6,Fog-Rain-Thunderstorm,44
2013-10-4,73,68,64,67,64,63,100,91,78,29.96,29.91,29.85,10,6,0,9,3,,0.24,7,Fog-Rain-Thunderstorm,65
2013-10-5,75,64,51,67,61,41,93,82,64,29.88,29.82,29.53,10,7,3,14,7,21,0.02,7,Rain,70
2013-10-6,55,47,39,44,40,37,97,83,49,29.81,29.76,29.71,10,7,0,8,2,,0.01,6,Fog-Rain,232
2013-10-7,71,56,42,47,43,39,97,81,33,30.09,29.97,29.77,10,7,0,13,4,21,0.00,2,Fog-Rain,264
2013-10-8,79,60,41,50,43,39,97,75,26,30.14,30.07,29.53,10,6,0,14,2,25,0.00,1,Fog,178
2013-10-9,75,58,42,51,44,40,100,80,32,30.19,30.13,29.53,10,6,0,10,1,,0.00,0,Fog,192
2013-10-10,77,56,37,51,43,37,97,85,33,30.17,30.10,30.01,10,4,0,8,1,,0.00,1,Fog,130
2013-10-11,78,62,46,57,50,45,100,77,39,30.02,29.94,29.53,10,5,1,14,2,28,0.00,2,Rain,139
2013-10-12,70,56,42,57,45,35,89,59,34,30.22,29.99,29.83,10,10,10,15,7,23,0.00,3,,244
2013-10-13,66,50,35,40,35,30,96,69,28,30.44,30.38,30.24,10,10,8,8,2,,0.00,0,,262
2013-10-14,66,47,30,43,35,29,97,81,40,30.44,30.36,30.09,10,4,0,12,1,21,0.00,3,Fog,86
2013-10-15,62,54,48,56,48,42,90,76,57,30.05,29.83,29.76,10,8,2,16,8,25,0.27,8,Rain,213
2013-10-16,51,50,48,49,46,44,93,86,80,29.97,29.88,29.79,10,8,2,9,6,18,0.03,8,Rain,268
2013-10-17,59,47,37,45,40,34,97,78,42,29.94,29.87,29.82,10,8,1,7,2,,0.00,5,,250
2013-10-18,53,46,39,43,37,30,89,73,43,29.97,29.92,29.83,10,9,1,13,6,20,0.00,5,,267
2013-10-19,54,40,28,40,32,27,96,87,49,29.92,29.84,29.76,10,6,0,12,2,17,0.03,4,Fog-Rain,215
2013-10-20,52,40,30,44,35,28,100,85,54,29.86,29.80,29.70,10,7,0,16,3,24,0.00,4,Fog-Rain,215
2013-10-21,46,36,28,35,26,20,85,62,40,30.01,29.95,29.82,10,10,8,16,8,25,0.00,6,,274
2013-10-22,50,34,23,28,25,20,92,73,42,30.04,29.98,29.53,10,10,8,8,3,20,0.00,2,,287
2013-10-23,45,34,26,32,26,20,92,69,40,30.08,30.04,30.02,10,10,8,12,4,20,0.00,7,Rain,260
2013-10-24,46,36,27,27,23,21,85,60,42,30.36,30.23,30.09,10,10,10,10,5,17,0.00,7,Snow,297
2013-10-25,55,40,26,30,26,22,89,60,33,30.39,30.23,29.92,10,10,10,17,7,30,0.00,3,Rain,224
2013-10-26,53,42,33,34,29,25,78,55,37,30.12,29.98,29.82,10,10,10,23,12,31,0.00,3,Rain,275
2013-10-27,59,42,26,30,27,24,92,67,31,30.09,30.01,29.90,10,10,9,13,4,21,0.00,0,,219
2013-10-28,46,38,30,31,29,28,92,62,53,30.41,30.31,30.08,10,10,10,10,6,21,0.00,6,,56
2013-10-29,55,46,39,40,33,27,71,63,53,30.40,30.28,30.12,10,10,10,8,6,,0.00,5,,62
2013-10-30,59,54,48,53,47,40,97,86,71,30.11,29.93,29.71,10,5,0,9,4,18,0.02,7,Fog-Rain,46
2013-10-31,57,50,43,57,51,38,100,90,76,29.66,29.50,29.37,10,4,0,12,4,21,0.60,8,Fog-Rain-Thunderstorm,265